Whiting Fld NAS, FL

9:54 PM CDT on August 22, 2017 (GMT -0500)
Whiting Field Naval Air Station (North)

Weather History for KNSE - October, 2011

Change the Weather History Date:

Saturday, October 15, 2011

  Actual Average Record
Temperature  
Mean Temperature 72 °F -  
Max Temperature 90 °F 76 °F 90 °F (2011)
Min Temperature 54 °F 56 °F 46 °F (2004)
Cooling Degree Days 6    
Growing Degree Days 22 (Base 50)    
Moisture  
Dew Point 54 °F    
Average Humidity 64    
Maximum Humidity 97    
Minimum Humidity 22    
Precipitation  
Precipitation 0.00 in - - ()
Sea Level Pressure  
Sea Level Pressure 30.04 in    
Wind  
Wind Speed 3 mph (NNE)    
Max Wind Speed 6 mph    
Max Gust Speed -    
Visibility 9 miles    
Events      
Averages and records for this station are not official NWS values.
T = Trace of Precipitation, MM = Missing Value Source: NWS Daily Summary

Daily Weather History Graph

Daily Weather History Graph

Search for Another Location

Airport or City:

Trip Planner

Search our weather history database for the weather conditions in past years. The results will help you decide how hot, cold, wet, or windy it might be!

Date:

Astronomy

Oct. 15, 2011 Rise Set
Actual Time 6:50 AM CDT 6:16 PM CDT
Civil Twilight 6:26 AM CDT 6:41 PM CDT
Nautical Twilight 5:58 AM CDT 7:09 PM CDT
Astronomical Twilight 5:30 AM CDT 7:37 PM CDT
Moon 8:29 PM CDT (10/15) 9:58 AM CDT (10/15)
Length of Visible Light 12h 15m
Length of Day
11h 26m
Waning Gibbous, 89% of the Moon is Illuminated
Oct 15
Waning Gibbous
Oct 19
Last Quarter
Oct 26
New
Nov 2
First Quarter
Nov 10
Full

Hourly Weather History & Observations

Time (CDT) Temp. Heat Index Dew Point Humidity Pressure Visibility Wind Dir Wind Speed Gust Speed Precip Events Conditions
12:56 AM 61.0 °F - 57.0 °F 87% 30.00 in 10.0 mi NW 4.6 mph - N/A   Clear
1:56 AM 60.1 °F - 57.0 °F 90% 30.00 in 10.0 mi NNW 4.6 mph - N/A   Clear
2:56 AM 55.0 °F - 54.0 °F 96% 30.00 in 10.0 mi Calm Calm - N/A   Clear
3:56 AM 54.0 °F - 53.1 °F 97% 30.00 in 10.0 mi Calm Calm - N/A   Clear
4:56 AM 55.9 °F - 53.1 °F 90% 30.00 in 10.0 mi North 5.8 mph - N/A   Clear
5:56 AM 55.9 °F - 52.0 °F 87% 30.01 in 10.0 mi North 3.5 mph - N/A   Clear
6:56 AM 54.0 °F - 51.1 °F 90% 30.03 in 10.0 mi North 4.6 mph - N/A   Clear
7:56 AM 61.0 °F - 54.0 °F 78% 30.04 in 10.0 mi North 3.5 mph - N/A   Clear
8:56 AM 68.0 °F - 54.0 °F 61% 30.06 in 10.0 mi NNE 3.5 mph - N/A   Clear
9:56 AM 75.9 °F - 53.1 °F 45% 30.07 in 10.0 mi NE 3.5 mph - N/A   Clear
10:56 AM 81.0 °F - 52.0 °F 36% 30.07 in 10.0 mi NE 5.8 mph - N/A   Clear
11:56 AM 84.0 °F - 52.0 °F 33% 30.06 in 10.0 mi Variable 3.5 mph - N/A   Clear
12:56 PM 86.0 °F - 50.0 °F 29% 30.03 in 10.0 mi Calm Calm - N/A   Clear
1:56 PM 88.0 °F - 46.0 °F 23% 30.01 in 10.0 mi ENE 3.5 mph - N/A   Clear
2:56 PM 89.1 °F - 46.0 °F 22% 30.00 in 10.0 mi NNE 3.5 mph - N/A   Clear
3:56 PM 89.1 °F - 46.0 °F 22% 30.00 in 10.0 mi Calm Calm - N/A   Clear
4:56 PM 87.1 °F - 50.0 °F 28% 30.00 in 10.0 mi Calm Calm - N/A   Clear
5:56 PM 80.1 °F 80.2 °F 55.9 °F 43% 30.01 in 10.0 mi Calm Calm - N/A   Clear
6:50 PM 69.8 °F - 57.2 °F 64% 30.07 in 1.8 mi Calm Calm - N/A   Haze
6:56 PM 73.0 °F - 54.0 °F 51% 30.04 in 2.0 mi South 3.5 mph - N/A   Haze
7:04 PM 71.6 °F - 57.2 °F 60% 30.08 in 9.0 mi South 3.5 mph - N/A   Clear
7:56 PM 70.0 °F - 61.0 °F 73% 30.05 in 10.0 mi SSW 3.5 mph - N/A   Clear
8:56 PM 64.0 °F - 59.0 °F 84% 30.06 in 8.0 mi Calm Calm - N/A   Clear
9:56 PM 62.1 °F - 59.0 °F 90% 30.07 in 10.0 mi Calm Calm - N/A   Clear
10:56 PM 57.9 °F - 55.9 °F 93% 30.08 in 10.0 mi Calm Calm - N/A   Clear
11:56 PM 59.0 °F - 57.0 °F 93% 30.07 in 10.0 mi North 3.5 mph - N/A   Clear